GW2967 Weather Reports


time (UTC)temp
C
wind
direction
speed
KPH
gust
KPH
rain 1hr
cm
rain 24hr
cm
rain mn
cm
humidity
%
barometer
mb
20260506044531 15 0 0.0 1.6 0.00 0.05 0.00 56 1009.1
20260506043027 15 0 0.0 0.0 0.00 0.05 0.00 55 1009.1
20260506041530 14 0 0.0 0.0 0.00 0.05 0.00 55 1009.1
20260506040030 15 0 0.0 0.0 0.00 0.05 0.00 54 1009.3
20260506034532 15 0 0.0 0.0 0.00 0.05 0.05 54 1009.1
20260506033028 15 0 0.0 0.0 0.00 0.05 0.05 54 1009.1
20260506031530 15 0 0.0 0.0 0.00 0.05 0.05 52 1009.1
20260506030038 16 0 0.0 0.0 0.00 0.05 0.05 51 1009.1
20260506024553 16 0 0.0 0.0 0.00 0.05 0.05 50 1009.1
20260506023031 16 0 0.0 1.6 0.00 0.05 0.05 49 1009.1
20260506021532 16 0 0.0 1.6 0.00 0.05 0.05 50 1009.1
20260506020028 17 0 0.0 0.0 0.00 0.05 0.05 49 1008.9
20260506014527 17 0 0.0 0.0 0.00 0.05 0.05 46 1008.8
20260506013039 18 0 0.0 0.0 0.00 0.05 0.05 46 1008.7
20260506011531 18 0 0.0 0.0 0.00 0.05 0.05 45 1008.6
20260506010031 19 0 0.0 0.0 0.00 0.05 0.05 43 1008.5
20260506004531 20 0 0.0 0.0 0.00 0.05 0.05 41 1008.0
20260506003034 21 0 0.0 0.0 0.00 0.05 0.05 39 1008.0
20260506001536 22 0 0.0 4.8 0.00 0.05 0.05 37 1007.8
20260506000032 22 0 0.0 4.8 0.00 0.05 0.05 34 1007.8
20260505234535 23 0 1.6 4.8 0.00 0.05 0.05 33 1007.7
20260505233028 23 0 1.6 11.3 0.00 0.05 0.05 32 1007.6
20260505231532 23 0 0.0 9.7 0.00 0.05 0.05 30 1007.6
20260505230048 24 210 1.6 8.0 0.00 0.05 0.05 28 1007.4
20260505224530 24 237 1.6 16.1 0.00 0.05 0.05 26 1007.3
20260505223030 25 269 1.6 14.5 0.00 0.05 0.05 27 1007.2
20260505221534 25 98 3.2 11.3 0.00 0.05 0.05 26 1007.2
20260505220027 25 207 0.0 14.5 0.00 0.05 0.05 26 1007.1
20260505214532 25 212 0.0 9.7 0.00 0.05 0.05 28 1007.0
20260505213048 25 271 1.6 11.3 0.00 0.05 0.05 27 1007.1
20260505211528 25 248 3.2 11.3 0.00 0.05 0.05 25 1006.9
20260505210030 26 245 4.8 16.1 0.00 0.05 0.05 25 1006.8
20260505204530 27 219 3.2 14.5 0.00 0.05 0.05 25 1006.8
20260505203041 27 271 4.8 14.5 0.00 0.05 0.05 22 1006.9
20260505201530 27 236 4.8 14.5 0.00 0.05 0.05 22 1006.9
20260505200035 27 218 3.2 9.7 0.00 0.05 0.05 22 1006.9
20260505194528 27 257 4.8 16.1 0.00 0.05 0.05 23 1006.9
20260505193028 27 303 4.8 16.1 0.00 0.05 0.05 23 1007.5
20260505191532 27 217 4.8 20.9 0.00 0.05 0.05 25 1007.5
20260505190032 27 212 4.8 14.5 0.00 0.05 0.05 25 1007.5
20260505184530 27 143 3.2 12.9 0.00 0.05 0.05 27 1007.8
20260505183027 26 147 4.8 17.7 0.00 0.05 0.05 28 1008.0
20260505181530 27 211 4.8 20.9 0.00 0.05 0.05 26 1008.2
20260505180030 27 214 3.2 11.3 0.00 0.05 0.05 27 1008.2
20260505174531 26 211 4.8 9.7 0.00 0.05 0.05 27 1008.3
20260505173040 26 301 4.8 16.1 0.00 0.05 0.05 26 1008.6
20260505171528 27 262 4.8 19.3 0.00 0.05 0.05 29 1008.7
20260505170029 26 197 4.8 14.5 0.00 0.05 0.05 32 1008.7
20260505164546 26 143 3.2 9.7 0.00 0.05 0.05 31 1008.8
20260505163028 26 217 3.2 9.7 0.00 0.05 0.05 36 1009.0
20260505161530 25 264 3.2 11.3 0.00 0.05 0.05 33 1009.2
20260505153044 24 165 1.6 12.9 0.00 0.05 0.05 39 1009.7
20260505124531 17 0 0.0 1.6 0.00 0.05 0.05 53 1010.5
20260505123030 16 151 0.0 0.0 0.00 0.05 0.05 55 1010.3
20260505121531 15 0 0.0 0.0 0.00 0.05 0.05 59 1010.6
20260505120030 14 0 0.0 1.6 0.00 0.05 0.05 61 1010.6
20260505114537 13 0 0.0 1.6 0.00 0.05 0.05 64 1010.7
20260505113029 12 0 0.0 1.6 0.00 0.05 0.05 66 1010.4
20260505111533 11 0 0.0 0.0 0.00 0.05 0.05 69 1010.2
20260505101532 8 0 0.0 1.6 0.00 0.05 0.05 67 1010.1
20260505100041 8 0 0.0 0.0 0.00 0.05 0.05 67 1010.0
20260505094531 8 0 0.0 0.0 0.03 0.05 0.05 67 1009.7
20260505093033 9 0 0.0 0.0 0.05 0.05 0.05 68 1009.6
20260505091527 9 0 0.0 0.0 0.05 0.05 0.05 69 1009.4
20260505090048 10 0 0.0 0.0 0.05 0.05 0.05 71 1009.4
20260505084536 10 0 0.0 0.0 0.03 0.03 0.03 71 1009.5
20260505083040 10 0 0.0 0.0 0.00 0.00 0.00 69 1010.1
20260505081548 10 0 0.0 0.0 0.00 0.00 0.00 68 1010.2
20260505080038 9 0 0.0 0.0 0.00 0.00 0.00 67 1009.7
20260505074527 9 0 0.0 0.0 0.00 0.00 0.00 68 1009.5
20260505073030 9 0 0.0 0.0 0.00 0.00 0.00 67 1009.2
20260505071531 9 0 0.0 0.0 0.00 0.00 0.00 65 1009.3
20260505070031 9 0 0.0 0.0 0.00 0.00 0.00 66 1009.4
20260505064527 10 0 0.0 0.0 0.00 0.00 0.00 65 1009.4
20260505063035 10 0 0.0 0.0 0.00 0.00 0.00 64 1009.4
20260505061532 10 0 0.0 1.6 0.00 0.00 0.00 62 1009.5